Погода в Светлом

Россия / Удмуртская Республика     57°03′32″N   53°37′46″E
темп.,
°C
ветер,
м/с
пор.,
м/с
влажн.,
%
обл.,
%
осадки,
мм/ч
давл.,
гПа
погр.,
м
12 мая, ср
ср1201:00+15св22805 0.0 102825
04:00+13св36880 0.0 1029106
07:00+16всв46754 0.0 1030254
10:00+21всв345623 0.0 1030741
13:00+24всв21453 0.0 10291482
16:00+25с21380 0.0 10281920
19:00+22св345413 0.0 102782
22:00+18в33615 0.0 102836
13 мая, чт
чт1301:00+16вюв22650 0.0 102811
04:00+15вюв22670 0.0 102812
07:00+18вюв12620 0.0 1029131
10:00+23ююв22460 0.0 1028644
13:00+26ююз233616 0.0 10272093
16:00+26юз54339 0.0 10261487
19:00+23юз234444 0.0 102633
22:00+19ю2247100 0.0 102611
14 мая, пт
пт1401:00+17ююв22538 0.0 102612
04:00+16ююв225726 0.0 102613
07:00+18ю35585 0.0 1026170
10:00+23ююз564048 0.0 1025880
13:00+25ююз563490 0.1 10241419
16:00+26ююз68336 0.1 10231863
19:00+23ююз365073 0.0 1022117
22:00+19ююз345987 0.0 102255
15 мая, сб
сб1501:00+17ююз386350 0.0 1022126
04:00+16ююз356697 0.0 102282
07:00+19юз496098 0.0 1022292
10:00+24ююз683975 0.1 1021742
13:00+26юз793464 0.0 10201238
16:00+27юз683534 0.0 10201579
19:00+23юз4950100 0.0 1019196
22:00+19юз3459100 0.0 101950
16 мая, вс
вс1601:00+18юз3361100 0.0 101936
04:00+16ююз336489 0.0 101928
07:00+19юз38585 0.0 1019213
10:00+25ююз57380 0.0 1018701
13:00+28юз79300 0.0 10182185
16:00+28юз693463 0.0 10172915
19:00+24ююз510485 0.0 1016229
22:00+21ююз61552100 0.0 1016384